Weather History for Fort Rucker / Ozark, AL

Change the Weather History Date:

Monday, February 25, 2013

  Actual Average (KDHN) Record (KDHN)
Temperature  
Mean Temperature 58 °F 55 °F  
Max Temperature 62 °F 67 °F 84 °F (1944)
Min Temperature 53 °F 43 °F 26 °F (1947)
Degree Days  
Heating Degree Days 8 10  
Month to date heating degree days 314  
Since 1 July heating degree days 1530  
Growing Degree Days 8 (Base 50)    
Moisture  
Dew Point 55 °F    
Average Humidity 91    
Maximum Humidity 100    
Minimum Humidity 77    
Precipitation  
Precipitation 2.00 in 0.17 in 2.05 in (2013)
Month to date precipitation 4.29  
Year to date precipitation 8.92  
Sea Level Pressure  
Sea Level Pressure 29.78 in    
Wind  
Wind Speed 5 mph (East)    
Max Wind Speed 12 mph    
Max Gust Speed 23 mph    
Visibility 7 miles    
Events Rain , Thunderstorm    
T = Trace of Precipitation, MM = Missing Value Source: NWS Daily Summary

Daily Weather History Graph

Daily Weather History Graph

Search for Another Location

Airport:

Trip Planner

Search our weather history database for the weather conditions in past years. The results will help you decide how hot, cold, wet, or windy it might be!

Date:

Astronomy

Feb. 25, 2013 Rise Set
Actual Time 6:14 AM CST 5:38 PM CST
Civil Twilight 5:49 AM CST 6:02 PM CST
Nautical Twilight 5:21 AM CST 6:31 PM CST
Astronomical Twilight 4:53 AM CST 6:59 PM CST
Moon 5:46 PM CST (2/25) 5:46 AM CST (2/25)
Length of Visible Light 12h 13m
Length of Day
11h 24m
Full, 100% of the Moon is Illuminated
Feb 25
Full
Feb 25
Full
Mar 4
Last Quarter
Mar 11
New
Mar 19
First Quarter

Hourly Weather History & Observations

Time (CST) Temp. Dew Point Humidity Pressure Visibility Wind Dir Wind Speed Gust Speed Precip Events Conditions
12:53 AM 54.0 °F 50.0 °F 86% 29.88 in 7.0 mi Variable 5.8 mph - 0.18 in Rain , Thunderstorm Thunderstorms and Rain
1:53 AM 53.1 °F 50.0 °F 89% 29.88 in 7.0 mi Calm Calm - 0.11 in Rain , Thunderstorm Light Thunderstorms and Rain
2:07 AM 53.6 °F 51.8 °F 94% 29.88 in 4.0 mi Variable 3.5 mph - 0.05 in Rain , Thunderstorm Heavy Thunderstorms and Rain
2:53 AM 53.1 °F 51.1 °F 93% 29.84 in 10.0 mi Variable 6.9 mph - 0.15 in Thunderstorm Thunderstorm
3:18 AM 53.6 °F 51.8 °F 94% 29.84 in 10.0 mi Variable 3.5 mph - N/A Thunderstorm Thunderstorm
3:53 AM 53.1 °F 51.1 °F 93% 29.81 in 7.0 mi Variable 5.8 mph - 0.01 in Rain , Thunderstorm Thunderstorms and Rain
4:06 AM 53.6 °F 51.8 °F 94% 29.81 in 6.0 mi Variable 4.6 mph - 0.03 in Rain Rain
4:19 AM 53.6 °F 51.8 °F 94% 29.84 in 7.0 mi Variable 3.5 mph - 0.04 in Rain , Thunderstorm Light Thunderstorms and Rain
4:35 AM 53.6 °F 51.8 °F 94% 29.84 in 4.0 mi Calm Calm - 0.11 in Rain Heavy Rain
4:44 AM 53.6 °F 51.8 °F 94% 29.85 in 4.0 mi ENE 4.6 mph - 0.13 in Rain , Thunderstorm Thunderstorms and Rain
4:53 AM 54.0 °F 52.0 °F 93% 29.84 in 4.0 mi NNE 5.8 mph - 0.16 in Rain , Thunderstorm Thunderstorms and Rain
5:38 AM 53.6 °F 51.8 °F 94% 29.86 in 2.5 mi NE 4.6 mph - 0.21 in Rain , Thunderstorm Heavy Thunderstorms and Rain
5:44 AM 53.6 °F 51.8 °F 94% 29.83 in 3.0 mi NE 8.1 mph - 0.23 in Rain Rain
5:57 AM 53.6 °F 53.6 °F 100% 29.87 in 5.0 mi Calm Calm - 0.01 in Rain , Thunderstorm Light Thunderstorms and Rain
6:11 AM 53.6 °F 51.8 °F 94% 29.87 in 5.0 mi NNW 5.8 mph - 0.03 in Rain , Thunderstorm Thunderstorms and Rain
6:29 AM 53.6 °F 51.8 °F 94% 29.85 in 5.0 mi NE 6.9 mph - 0.07 in Rain , Thunderstorm Thunderstorms and Rain
6:37 AM 53.6 °F 51.8 °F 94% 29.85 in 5.0 mi NE 6.9 mph - 0.09 in Rain , Thunderstorm Thunderstorms and Rain
6:53 AM 54.0 °F 53.1 °F 97% 29.85 in 4.0 mi Calm Calm - 0.14 in Rain , Thunderstorm Rain
7:01 AM 53.6 °F 51.8 °F 94% 29.86 in 5.0 mi Variable 3.5 mph - 0.02 in Rain , Thunderstorm Thunderstorms and Rain
7:17 AM 53.6 °F 53.6 °F 100% 29.91 in 2.0 mi South 4.6 mph - 0.11 in Rain Heavy Rain
7:40 AM 55.4 °F 53.6 °F 94% 29.88 in 2.5 mi NE 6.9 mph - 0.24 in Rain , Thunderstorm Heavy Rain
7:53 AM 55.0 °F 53.1 °F 93% 29.86 in 2.0 mi NE 8.1 mph - 0.31 in Rain , Thunderstorm Heavy Thunderstorms and Rain
8:08 AM 55.4 °F 53.6 °F 94% 29.90 in 4.0 mi Variable 5.8 mph - 0.05 in Rain , Thunderstorm Thunderstorms and Rain
8:19 AM 55.4 °F 53.6 °F 94% 29.91 in 3.0 mi Calm Calm - 0.09 in Rain Rain
8:27 AM 55.4 °F 53.6 °F 94% 29.90 in 3.0 mi Calm Calm - 0.12 in Rain , Thunderstorm Thunderstorms and Rain
8:53 AM 55.9 °F 54.0 °F 93% 29.88 in 5.0 mi ENE 4.6 mph - 0.16 in Rain , Thunderstorm Light Thunderstorms and Rain
9:00 AM 55.4 °F 53.6 °F 94% 29.88 in 5.0 mi ENE 4.6 mph - 0.01 in Rain Rain
9:14 AM 55.4 °F 53.6 °F 94% 29.89 in 6.0 mi ENE 4.6 mph - 0.03 in Rain , Thunderstorm Thunderstorms and Rain
9:30 AM 55.4 °F 53.6 °F 94% 29.88 in 4.0 mi ENE 6.9 mph - 0.06 in Rain Rain
9:53 AM 55.9 °F 54.0 °F 93% 29.88 in 4.0 mi East 8.1 mph - 0.09 in Rain Rain
10:53 AM 55.9 °F 54.0 °F 93% 29.83 in 8.0 mi ESE 9.2 mph 19.6 mph 0.09 in Rain Light Rain
11:53 AM 57.0 °F 55.9 °F 96% 29.81 in 3.0 mi Variable 3.5 mph - 0.04 in Rain Heavy Rain
12:53 PM 60.1 °F 57.0 °F 90% 29.77 in 10.0 mi Variable 6.9 mph 18.4 mph 0.01 in   Overcast
1:53 PM 61.0 °F 55.9 °F 83% 29.76 in 10.0 mi Variable 6.9 mph - N/A   Overcast
2:53 PM 61.0 °F 55.9 °F 83% 29.75 in 10.0 mi ESE 8.1 mph 18.4 mph N/A   Overcast
3:08 PM 62.6 °F 55.4 °F 77% 29.74 in 10.0 mi Variable 6.9 mph - N/A   Overcast
3:22 PM 62.6 °F 55.4 °F 77% 29.74 in 10.0 mi Variable 4.6 mph - N/A Thunderstorm Thunderstorm
3:37 PM 62.6 °F 55.4 °F 77% 29.74 in 10.0 mi Variable 5.8 mph 16.1 mph N/A   Mostly Cloudy
3:53 PM 61.0 °F 55.9 °F 83% 29.73 in 10.0 mi ESE 6.9 mph - N/A   Overcast
4:14 PM 60.8 °F 55.4 °F 82% 29.73 in 10.0 mi ESE 6.9 mph - N/A Thunderstorm Thunderstorm
4:30 PM 60.8 °F 55.4 °F 82% 29.73 in 10.0 mi East 6.9 mph - N/A Thunderstorm Thunderstorm
4:36 PM 60.8 °F 55.4 °F 82% 29.73 in 10.0 mi ESE 5.8 mph - 0.00 in Rain Light Rain
4:57 PM 60.8 °F 57.2 °F 88% 29.74 in 2.5 mi Calm Calm - 0.02 in Rain , Thunderstorm Thunderstorms and Rain
5:10 PM 59.0 °F 57.2 °F 94% 29.72 in 1.8 mi ESE 9.2 mph - 0.08 in Rain Heavy Rain
5:24 PM 59.0 °F 57.2 °F 94% 29.73 in 3.0 mi Variable 6.9 mph - 0.17 in Rain , Thunderstorm Light Thunderstorms and Rain
5:36 PM 59.0 °F 57.2 °F 94% 29.74 in 10.0 mi Calm Calm - 0.17 in   Overcast
5:53 PM 60.1 °F 57.0 °F 90% 29.74 in 10.0 mi Variable 4.6 mph - 0.17 in   Overcast
6:34 PM 60.8 °F 57.2 °F 88% 29.72 in 10.0 mi ESE 6.9 mph - 0.00 in Rain Light Rain
6:53 PM 60.1 °F 57.0 °F 90% 29.73 in 6.0 mi ESE 5.8 mph - 0.03 in Rain Light Rain
7:25 PM 59.0 °F 57.2 °F 94% 29.71 in 10.0 mi Variable 6.9 mph - 0.05 in Rain , Thunderstorm Light Thunderstorms and Rain
7:40 PM 59.0 °F 57.2 °F 94% 29.71 in 10.0 mi Variable 5.8 mph - 0.06 in Rain Light Rain
7:53 PM 59.0 °F 57.0 °F 93% 29.69 in 6.0 mi East 8.1 mph - 0.08 in Rain Rain
8:08 PM 59.0 °F 57.2 °F 94% 29.69 in 10.0 mi ESE 8.1 mph - 0.01 in Rain , Thunderstorm Light Thunderstorms and Rain
8:53 PM 59.0 °F 57.0 °F 93% 29.69 in 3.0 mi Variable 6.9 mph - 0.17 in Rain , Thunderstorm Heavy Thunderstorms and Rain
9:34 PM 59.0 °F 57.2 °F 94% 29.67 in 10.0 mi ESE 8.1 mph 21.9 mph 0.05 in   Overcast
9:53 PM 59.0 °F 57.0 °F 93% 29.65 in 10.0 mi ESE 8.1 mph 18.4 mph 0.05 in   Overcast
10:12 PM 59.0 °F 57.2 °F 94% 29.66 in 10.0 mi SE 8.1 mph 20.7 mph 0.01 in Rain , Thunderstorm Light Thunderstorms and Rain
10:35 PM 60.8 °F 57.2 °F 88% 29.65 in 10.0 mi ESE 5.8 mph - 0.01 in   Overcast
10:53 PM 60.1 °F 57.9 °F 93% 29.63 in 8.0 mi SE 10.4 mph 18.4 mph 0.02 in Rain Light Rain
11:32 PM 60.8 °F 57.2 °F 88% 29.61 in 10.0 mi SE 8.1 mph 20.7 mph 0.01 in Rain , Thunderstorm Light Thunderstorms and Rain
11:48 PM 60.8 °F 59.0 °F 94% 29.59 in 8.0 mi SSE 11.5 mph 21.9 mph 0.02 in Rain Light Rain
11:53 PM 61.0 °F 59.0 °F 93% 29.57 in 6.0 mi SE 10.4 mph 23.0 mph 0.03 in Rain Rain